Current weather by "City, St" or "zip code"  
 
Advertise Here

Current Conditions: St. Charles, St. Charles County Smartt Airport, MO

Fog/Mist


51.0 F

Last Updated on Feb 28 2021, 5:54 am CST
Humidity: 89%
Wind Speed: N 0.0 mph
Barometer 29.77 in
Dewpoint: 48.0 F
Visibility: 0.75 mi
Precip: --
Heat Index: NA
Wind Chill: NA
Current conditions at:

St. Charles, St. Charles County Smartt Airport, MO (KSET)

Lat: 38.93056 Lon: 90.4325

Local Radar Image active severe weather and emergency alerts image image weather storm and storm spotter reports image weather observation monitoring service image
Local
Radar
Active
Alerts
Storm Reports Obs
Monitoring

Sign-up For Email & Text Message Weather Alert Notification Services


Advertise Here

Observation History for St. Charles, St. Charles County Smartt Airport, MO


Time Wind
(mph)
Vis
(mi)
Weather Precip (in) Temperature (F) Relative
Humidity
Wind
Chill
(F)
Heat
Index
(F)
Pressure
Air Dwpt altimeter
(in)
sea level
(mb)
Rmks
5:54 am CST N 0.0 0.75 Fog/Mist -- 51.0 48.0 89% NA NA 29.77 1008.0
4:54 am CST N 0.0 5.00 Fog/Mist 00.01 51.0 48.9 92% NA NA 29.77 1008.0
3:54 am CST E 4.6 7.00 Overcast Trace 50.0 48.0 93% 48 NA 29.76 1007.5
2:54 am CST SE 8.1 4.00 Thunderstorm in Vicinity Light Rain Fog/Mist -- 51.0 46.9 86% 48 NA 29.77 1008.0
1:54 am CST NE 5.8 4.00 Thunderstorm Rain Fog/Mist 00.38 50.0 46.9 89% 48 NA 29.80 1009.0
12:52 am CST E 4.6 3.00 Heavy Rain Fog/Mist 00.21 51.0 48.0 89% 50 NA 29.84 1010.2
11:54 pm CST S 9.2 5.00 Rain Fog/Mist 00.04 51.0 46.9 86% 48 NA 29.86 1010.9
10:54 pm CST NE 5.8 7.00 Light Rain 00.13 50.0 46.0 86% 48 NA 29.89 1011.9
9:54 pm CST SE 8.1 7.00 Rain 00.01 51.0 45.0 80% 48 NA 29.91 1012.7
8:54 pm CST SE 11.5 10.00 Mostly Cloudy -- 52.0 44.1 75% 48 NA 29.91 1012.8
7:54 pm CST E 10.4 10.00 Fair -- 49.0 43.0 80% 45 NA 29.92 1013.3
6:54 pm CST E 11.5 10.00 Fair -- 50.0 43.0 77% 46 NA 29.94 1014.0
5:54 pm CST E 11.5 10.00 Fair -- 52.0 44.1 75% 48 NA 29.94 1014.0
4:54 pm CST E 12.7 10.00 Fair -- 55.0 44.1 67% 52 NA 29.96 1014.5
3:54 pm CST E 12.7 10.00 Fair -- 57.0 43.0 60% 54 NA 29.97 1014.9
2:54 pm CST E 12.7 10.00 Fair -- 58.0 42.1 56% 55 NA 29.99 1015.4
1:54 pm CST SE 6.9 10.00 Fair -- 59.0 39.9 49% 58 NA 30.00 1015.8
12:54 pm CST 6.9 10.00 Fair -- 58.0 42.1 56% 57 NA 30.02 1016.5
11:54 am CST 5.8 10.00 Fair -- 55.0 41.0 59% 54 NA 30.06 1017.7
10:54 am CST NE 4.6 10.00 Fair -- 53.0 42.1 66% 52 NA 30.06 1017.9
9:54 am CST SW 5.8 10.00 Fair -- 48.0 39.0 71% 45 NA 30.07 1018.4
8:54 am CST N 0.0 10.00 Fair -- 44.0 37.9 79% NA NA 30.07 1018.2
7:54 am CST N 0.0 6.00 Fog/Mist -- 38.0 34.0 86% NA NA 30.04 1017.3
6:54 am CST W 3.5 7.00 Fair -- 34.0 30.0 85% NA NA 30.00 1016.0

Regional Weather Observation


Pittsfield, Pittsfield Penstone Municipal Airport, IL (KPPQ)

Overcast
49.0 F

St. Louis Lambert International Airport, MO (KSTL)

Fog/Mist
55.0 F

St. Louis Regional Airport, IL (KALN)

Fog/Mist
53.0 F

St. Louis, Spirit Of St. Louis Airport, MO (KSUS)

Fog/Mist
51.0 F

Jacksonville Municipal Airport, IL (KIJX)

Fog/Mist
47.0 F

Mount Sterling, Mount Sterling Municipal Airport, IL (KI63)

Fog
46.0 F
Advertise Here

Advertise Here